Simultaneous Nadir Overpasses (SNOs) Predictions

Prediction of SNOs between AQUA and METOP-B Satellite Orbit:

Table of predicted SNOs for the next 14.0 days since TLE Epoch: 8/26/2017
Index Date (AQUA) Time (AQUA) Lat,Lon (AQUA) SZA (AQUA ) Date (METOP-B) Time (METOP-B) Lat,Lon (METOP-B) SZA (METOP-B ) Distance(km) Time Diff (sec)
1 08/28/2017 03:15:04 73.80, 125.48 64.14 08/28/2017 03:14:18 73.78, 125.40 64.13 2.83 46
2 08/28/2017 04:04:31 -73.87, -67.05 115.77 08/28/2017 04:04:58 -73.89, -67.01 115.76 2.26 27
3 08/30/2017 22:49:20 73.81,-168.12 65.15 08/30/2017 22:48:37 73.82,-168.09 65.17 1.95 43
4 08/30/2017 23:38:47 -73.88, -0.64 114.76 08/30/2017 23:39:18 -73.89, -0.61 114.76 0.83 31
5 09/02/2017 18:23:35 73.82,-101.72 66.18 09/02/2017 18:22:56 73.81,-101.70 66.18 1.38 39
6 09/02/2017 19:13:02 -73.90, 65.76 113.73 09/02/2017 19:13:37 -73.88, 65.78 113.75 2.45 35
7 09/05/2017 13:57:50 73.80, -35.22 67.18 09/05/2017 13:57:16 73.80, -35.32 67.20 3.05 34
8 09/05/2017 14:47:17 -73.87, 132.26 112.73 09/05/2017 14:47:57 -73.87, 132.17 112.73 2.69 40
9 09/08/2017 09:32:06 73.82, 31.15 68.26 09/08/2017 09:31:35 73.84, 31.18 68.28 1.92 31
10 09/08/2017 10:21:33 -73.90,-161.37 111.65 09/08/2017 10:22:16 -73.91,-161.33 111.65 1.63 43




NCC Satellite Simultaneous Nadir Overpasses (SNOs) Prediction Service
